KB1JDX Weather Reports


time (UTC)temp
F
wind
direction
speed
knots
gust
knots
rain 1hr
in
rain 24hr
in
rain mn
in
humidity
%
barometer
mb
20260504194033 70 167 0.0 16.5 0.00 0.00 0.00 35 1008.3
20260504192033 69 224 16.5 16.5 0.00 0.00 0.00 34 1008.3
20260504191926 69 200 9.6 16.5 0.00 0.00 0.00 35 1008.2
20260504190033 69 178 0.0 20.9 0.00 0.00 0.00 34 1008.4
20260504184035 69 247 0.0 20.9 0.00 0.00 0.00 33 1008.6
20260504182035 69 220 2.6 20.9 0.00 0.00 0.00 34 1008.9
20260504181926 69 232 4.3 20.9 0.00 0.00 0.00 34 1008.9
20260504180034 68 230 11.3 16.5 0.00 0.00 0.00 35 1009.1
20260504174034 68 228 1.7 16.5 0.00 0.00 0.00 35 1009.2
20260504172032 68 237 4.3 16.5 0.00 0.00 0.00 34 1009.1
20260504171926 68 189 4.3 16.5 0.00 0.00 0.00 34 1009.2
20260504090128 37 291 0.0 0.0 0.00 0.00 0.00 57 1011.8
20260504081926 38 291 0.0 0.0 0.00 0.00 0.00 55 1011.4
20260504044033 35 291 0.0 0.0 0.00 0.00 0.00 53 1011.8
20260504042033 36 291 0.0 0.0 0.00 0.00 0.00 55 1011.7
20260504041926 36 291 0.0 0.0 0.00 0.00 0.00 55 1011.5
20260504040033 36 291 0.0 0.0 0.00 0.00 0.00 57 1011.4
20260504034032 37 291 0.0 0.0 0.00 0.00 0.00 59 1011.2
20260504032032 37 291 0.0 0.0 0.00 0.00 0.00 63 1011.3
20260504031925 37 291 0.0 0.0 0.00 0.00 0.00 63 1011.3
20260504030032 38 291 0.0 0.0 0.00 0.00 0.00 66 1011.1
20260504024033 38 291 0.0 0.0 0.00 0.00 0.00 67 1011.0
20260504022032 39 291 0.0 0.0 0.00 0.00 0.00 69 1010.8
20260504021926 39 291 0.0 0.0 0.00 0.00 0.00 69 1010.8
20260504020033 40 291 0.0 0.0 0.00 0.00 0.00 70 1010.7
20260504014033 41 291 0.0 0.0 0.00 0.00 0.00 69 1010.6
20260504011926 42 291 0.0 0.0 0.00 0.00 0.00 66 1010.4
20260504010033 44 291 0.0 0.0 0.00 0.00 0.00 63 1010.0
20260504004034 45 291 0.0 0.0 0.00 0.00 0.00 57 1009.6
20260504002033 47 291 0.0 0.0 0.00 0.00 0.00 53 1009.4
20260504001926 48 291 0.0 0.0 0.00 0.00 0.00 53 1009.4
20260504000033 50 291 0.0 7.0 0.00 0.00 0.00 49 1009.3
20260503234034 51 291 0.0 7.0 0.00 0.00 0.00 45 1009.1
20260503232032 52 291 0.0 7.0 0.00 0.00 0.00 42 1009.1
20260503231926 52 291 0.0 7.0 0.00 0.00 0.00 42 1009.1
20260503230034 52 355 0.0 8.7 0.00 0.00 0.00 42 1008.8
20260503224032 52 317 0.0 8.7 0.00 0.00 0.00 43 1008.7
20260503222034 52 300 4.3 8.7 0.00 0.00 0.00 42 1008.5
20260503221926 52 308 7.0 8.7 0.00 0.00 0.00 42 1008.7
20260503220034 53 302 4.3 12.2 0.00 0.00 0.00 41 1008.4
20260503214034 53 291 1.7 12.2 0.00 0.00 0.00 41 1008.1
20260503212033 54 284 5.2 12.2 0.00 0.01 0.00 41 1008.0
20260503211926 54 284 5.2 12.2 0.00 0.01 0.00 41 1008.0
20260503204034 53 303 0.0 10.4 0.00 0.01 0.00 43 1007.5
20260503202034 53 313 7.0 10.4 0.00 0.05 0.00 41 1007.2
20260503201926 53 297 7.8 10.4 0.00 0.05 0.00 42 1007.3
20260503200034 54 307 0.9 11.3 0.00 0.05 0.00 40 1007.1